• în Republica Moldova
  • Lista ţărilor
  • Pe 7 zile
  • Temperatura apei
  • Hartă satelitară
  • Meteo pe hartă
  • Widget-uri
  • user-avatar
    Intrare

    Meteo pe oră la Shaki

    Astăzi, 23 Septembrie, Sâmbătă

    Timp Temperatura Precipitaţii Vânt Presiune Umiditate
    00:00 +25°C° 0 mm 1 m/s 735 mmHg 40%
    01:00 +24°C° 0 mm 1 m/s 735 mmHg 41%
    02:00 +24°C° 0 mm 1 m/s 735 mmHg 42%
    03:00 +24°C° 0 mm 1 m/s 735 mmHg 44%
    04:00 +24°C° 0,1 mm 1 m/s 735 mmHg 45%
    05:00 +23°C° 0,1 mm 1 m/s 735 mmHg 47%
    06:00 +23°C° 0,1 mm 1 m/s 735 mmHg 48%
    07:00 +25°C° 0 mm 2 m/s 736 mmHg 47%
    08:00 +27°C° 0 mm 2 m/s 736 mmHg 45%
    09:00 +29°C° 0 mm 3 m/s 736 mmHg 43%
    10:00 +30°C° 0 mm 3 m/s 736 mmHg 40%
    11:00 +32°C° 0 mm 4 m/s 736 mmHg 38%
    12:00 +33°C° 0 mm 4 m/s 736 mmHg 35%
    13:00 +33°C° 0 mm 4 m/s 736 mmHg 34%
    14:00 +33°C° 0 mm 4 m/s 736 mmHg 34%
    15:00 +33°C° 0 mm 4 m/s 736 mmHg 33%
    16:00 +30°C° 0 mm 4 m/s 736 mmHg 36%
    17:00 +29°C° 0 mm 3 m/s 736 mmHg 39%
    18:00 +27°C° 0 mm 3 m/s 736 mmHg 43%
    19:00 +26°C° 0 mm 3 m/s 736 mmHg 43%
    20:00 +26°C° 0 mm 3 m/s 737 mmHg 44%
    21:00 +25°C° 0 mm 3 m/s 737 mmHg 44%
    22:00 +24°C° 0 mm 3 m/s 737 mmHg 46%
    23:00 +24°C° 0 mm 2 m/s 737 mmHg 48%

    Mâine, 24 Septembrie, Duminică

    Timp Temperatura Precipitaţii Vânt Presiune Umiditate
    00:00 +23°C° 0 mm 2 m/s 737 mmHg 50%
    01:00 +23°C° 0 mm 2 m/s 737 mmHg 52%
    02:00 +21°C° 0 mm 2 m/s 737 mmHg 54%
    03:00 +22°C° 0 mm 1 m/s 738 mmHg 55%
    04:00 +22°C° 0 mm 1 m/s 738 mmHg 57%
    05:00 +21°C° 0 mm 1 m/s 738 mmHg 58%
    06:00 +21°C° 0 mm 1 m/s 738 mmHg 59%
    07:00 +23°C° 0 mm 1 m/s 738 mmHg 54%
    08:00 +25°C° 0 mm 1 m/s 738 mmHg 50%
    09:00 +27°C° 0 mm 2 m/s 739 mmHg 46%
    10:00 +28°C° 0 mm 2 m/s 738 mmHg 43%
    11:00 +29°C° 0 mm 2 m/s 738 mmHg 41%
    12:00 +30°C° 0 mm 2 m/s 738 mmHg 38%
    13:00 +30°C° 0 mm 3 m/s 738 mmHg 38%
    14:00 +30°C° 0 mm 3 m/s 738 mmHg 37%
    15:00 +30°C° 0 mm 3 m/s 738 mmHg 37%
    16:00 +29°C° 0 mm 2 m/s 738 mmHg 41%
    17:00 +27°C° 0 mm 2 m/s 738 mmHg 45%
    18:00 +26°C° 0 mm 2 m/s 738 mmHg 50%
    19:00 +25°C° 0 mm 2 m/s 738 mmHg 51%
    20:00 +25°C° 0 mm 2 m/s 739 mmHg 53%
    21:00 +24°C° 0 mm 3 m/s 739 mmHg 55%
    22:00 +22°C° 0 mm 3 m/s 739 mmHg 58%
    23:00 +23°C° 0 mm 2 m/s 739 mmHg 62%

    Poimâine, 25 Septembrie, Luni

    Timp Temperatura Precipitaţii Vânt Presiune Umiditate
    00:00 +21°C° 0 mm 2 m/s 739 mmHg 65%
    01:00 +21°C° 0 mm 2 m/s 739 mmHg 67%
    02:00 +20°C° 0 mm 2 m/s 739 mmHg 68%
    03:00 +21°C° 0 mm 1 m/s 739 mmHg 70%
    04:00 +21°C° 0 mm 1 m/s 739 mmHg 70%
    05:00 +20°C° 0 mm 1 m/s 739 mmHg 70%
    06:00 +20°C° 0 mm 1 m/s 739 mmHg 70%
    07:00 +22°C° 0 mm 1 m/s 739 mmHg 64%
    08:00 +24°C° 0 mm 1 m/s 739 mmHg 58%
    09:00 +26°C° 0 mm 2 m/s 740 mmHg 51%
    10:00 +27°C° 0 mm 2 m/s 739 mmHg 47%
    11:00 +28°C° 0 mm 2 m/s 739 mmHg 43%
    12:00 +29°C° 0 mm 2 m/s 739 mmHg 39%
    13:00 +29°C° 0 mm 2 m/s 739 mmHg 38%
    14:00 +29°C° 0 mm 2 m/s 739 mmHg 37%
    15:00 +30°C° 0 mm 2 m/s 738 mmHg 37%
    16:00 +28°C° 0 mm 2 m/s 739 mmHg 41%
    17:00 +27°C° 0 mm 2 m/s 739 mmHg 45%
    18:00 +25°C° 0 mm 2 m/s 739 mmHg 50%
    19:00 +25°C° 0 mm 2 m/s 739 mmHg 51%
    20:00 +24°C° 0 mm 2 m/s 739 mmHg 53%
    21:00 +22°C° 0 mm 3 m/s 740 mmHg 55%
    22:00 +22°C° 0 mm 3 m/s 740 mmHg 57%
    23:00 +21°C° 0 mm 3 m/s 739 mmHg 60%

    26 Septembrie, Marţi

    Timp Temperatura Precipitaţii Vânt Presiune Umiditate
    00:00 +21°C° 0 mm 3 m/s 739 mmHg 62%
    01:00 +20°C° 0 mm 2 m/s 739 mmHg 62%
    02:00 +20°C° 0 mm 2 m/s 739 mmHg 63%
    03:00 +19°C° 0 mm 2 m/s 739 mmHg 64%
    04:00 +19°C° 0 mm 2 m/s 739 mmHg 64%
    05:00 +19°C° 0 mm 2 m/s 739 mmHg 64%
    06:00 +18°C° 0 mm 2 m/s 739 mmHg 64%
    07:00 +20°C° 0 mm 2 m/s 740 mmHg 59%
    08:00 +22°C° 0 mm 3 m/s 740 mmHg 54%
    09:00 +24°C° 0 mm 3 m/s 740 mmHg 50%
    10:00 +25°C° 0 mm 3 m/s 740 mmHg 47%
    11:00 +26°C° 0 mm 4 m/s 740 mmHg 45%
    12:00 +27°C° 0 mm 4 m/s 739 mmHg 43%
    13:00 +27°C° 0 mm 4 m/s 739 mmHg 42%
    14:00 +27°C° 0 mm 4 m/s 739 mmHg 42%
    15:00 +27°C° 0 mm 4 m/s 739 mmHg 41%
    16:00 +26°C° 0 mm 4 m/s 739 mmHg 46%
    17:00 +25°C° 0 mm 4 m/s 739 mmHg 51%
    18:00 +22°C° 0 mm 4 m/s 739 mmHg 56%
    19:00 +21°C° 0 mm 4 m/s 739 mmHg 61%
    20:00 +20°C° 0 mm 5 m/s 739 mmHg 65%
    21:00 +19°C° 0 mm 5 m/s 739 mmHg 70%
    22:00 +19°C° 0 mm 4 m/s 739 mmHg 72%
    23:00 +19°C° 0 mm 3 m/s 739 mmHg 73%

    27 Septembrie, Miercuri

    Timp Temperatura Precipitaţii Vânt Presiune Umiditate
    00:00 +18°C° 0 mm 3 m/s 739 mmHg 75%
    01:00 +18°C° 0 mm 2 m/s 739 mmHg 74%
    02:00 +18°C° 0 mm 2 m/s 738 mmHg 72%
    03:00 +18°C° 0 mm 2 m/s 738 mmHg 71%
    04:00 +19°C° 0 mm 1 m/s 738 mmHg 70%
    05:00 +19°C° 0 mm 1 m/s 738 mmHg 69%
    06:00 +19°C° 0 mm 1 m/s 738 mmHg 68%
    07:00 +20°C° 0 mm 1 m/s 738 mmHg 64%
    08:00 +21°C° 0 mm 1 m/s 738 mmHg 60%
    09:00 +21°C° 0 mm 2 m/s 738 mmHg 57%
    10:00 +23°C° 0 mm 2 m/s 738 mmHg 54%
    11:00 +24°C° 0 mm 2 m/s 737 mmHg 50%
    12:00 +25°C° 0 mm 2 m/s 737 mmHg 47%
    13:00 +26°C° 0 mm 2 m/s 737 mmHg 46%
    14:00 +26°C° 0 mm 3 m/s 737 mmHg 44%
    15:00 +26°C° 0 mm 3 m/s 737 mmHg 43%
    16:00 +25°C° 0 mm 3 m/s 737 mmHg 49%
    17:00 +24°C° 0 mm 3 m/s 737 mmHg 54%
    18:00 +22°C° 0 mm 3 m/s 738 mmHg 60%
    19:00 +21°C° 0,3 mm 3 m/s 738 mmHg 63%
    20:00 +20°C° 0,3 mm 3 m/s 738 mmHg 66%
    21:00 +20°C° 0,3 mm 4 m/s 739 mmHg 70%
    22:00 +19°C° 0,1 mm 3 m/s 738 mmHg 71%
    23:00 +19°C° 0,1 mm 3 m/s 738 mmHg 72%

    28 Septembrie, Joi

    Timp Temperatura Precipitaţii Vânt Presiune Umiditate
    00:00 +19°C° 0,1 mm 3 m/s 738 mmHg 73%
    01:00 +18°C° 0 mm 3 m/s 738 mmHg 74%
    02:00 +18°C° 0 mm 2 m/s 738 mmHg 75%
    03:00 +17°C° 0 mm 2 m/s 738 mmHg 77%
    04:00 +17°C° 0,1 mm 2 m/s 738 mmHg 78%
    05:00 +17°C° 0,1 mm 2 m/s 739 mmHg 79%
    06:00 +17°C° 0,1 mm 2 m/s 739 mmHg 80%
    07:00 +17°C° 0,3 mm 3 m/s 739 mmHg 80%
    08:00 +18°C° 0,3 mm 3 m/s 739 mmHg 79%
    09:00 +18°C° 0,3 mm 3 m/s 740 mmHg 79%
    10:00 +18°C° 0,3 mm 3 m/s 740 mmHg 79%
    11:00 +18°C° 0,3 mm 3 m/s 740 mmHg 80%
    12:00 +18°C° 0,3 mm 3 m/s 740 mmHg 80%
    13:00 +18°C° 0,1 mm 3 m/s 740 mmHg 80%
    14:00 +18°C° 0,1 mm 3 m/s 740 mmHg 79%
    15:00 +18°C° 0,1 mm 3 m/s 740 mmHg 79%
    16:00 +17°C° 0,1 mm 3 m/s 740 mmHg 81%
    17:00 +17°C° 0,1 mm 3 m/s 740 mmHg 83%
    18:00 +17°C° 0,1 mm 3 m/s 740 mmHg 86%
    19:00 +16°C° 0,1 mm 2 m/s 741 mmHg 86%
    20:00 +16°C° 0,1 mm 2 m/s 741 mmHg 86%
    21:00 +16°C° 0,1 mm 2 m/s 741 mmHg 86%
    22:00 +16°C° 0,1 mm 2 m/s 741 mmHg 85%
    23:00 +16°C° 0,1 mm 2 m/s 740 mmHg 84%
    Arată mai mult